Track OPS 3367 A now! 10-day predictions OPS 3367 A is classified as:
1 00734U 64002B 24325.53348103 .00000287 00000-0 13088-3 0 9999 2 00734 98.9775 227.5685 0015407 54.2377 306.0234 14.29411104166807